Terminal Aerodrome Forecast
Issued by NWS San Angelo, TX

Home | Current Version | Previous Version | Text Only | Print | Product List | Glossary On
Versions: 1 2 3 4 5 6 7 8 9 10 11 12 13
000
FTUS44 KSJT 232300
TAFABI
TAF
KABI 232330Z 2400/2424 13007KT P6SM SCT050 BKN130=

USA.gov is the U.S. government's official web portal to all federal, state and local government web resources and services.